Total_Precipitation_Accumulation
0.96 1.14 1.44 1.80 2.10 2.27 2.58 2.74 2.97 3.18 3.22 3.13 2.82 2.53 2.34 2.28 2.15 1.89 1.67 1.64 1.59 1.49 1.53 1.56 1.41 1.24 1.21 1.14 1.04 0.99 0.98 1.03 1.09 1.05 0.89 0.73 0.63 0.54 0.46 0.42 0.36 0.30 0.26
0.78 0.96 1.32 1.52 1.74 1.99 2.19 2.49 2.58 2.88 2.92 2.82 2.76 2.61 2.53 2.46 2.37 2.21 1.93 1.78 1.74 1.64 1.55 1.53 1.49 1.33 1.23 1.26 1.27 1.19 1.12 1.06 1.10 1.16 1.13 0.96 0.82 0.63 0.49 0.46 0.44 0.39 0.36
0.60 0.75 1.06 1.35 1.46 1.71 2.01 2.14 2.26 2.50 2.75 2.79 2.90 2.98 2.91 2.66 2.40 2.26 2.18 2.01 1.90 1.83 1.69 1.60 1.60 1.50 1.33 1.23 1.28 1.34 1.33 1.31 1.30 1.26 1.36 1.24 0.96 0.74 0.56 0.47 0.46 0.45 0.44
0.50 0.60 0.71 0.97 1.19 1.37 1.73 2.05 2.23 2.36 2.56 2.86 2.85 2.74 2.60 2.40 2.14 2.14 2.22 2.21 2.10 1.99 1.84 1.77 1.75 1.67 1.52 1.38 1.38 1.40 1.47 1.52 1.49 1.45 1.35 1.25 1.07 1.01 0.80 0.55 0.47 0.45 0.41
0.55 0.55 0.58 0.73 0.94 1.12 1.45 1.77 2.03 2.32 2.52 2.65 2.69 2.72 2.51 2.32 2.27 2.20 2.20 2.12 2.03 1.97 1.91 1.85 1.90 1.83 1.70 1.63 1.64 1.61 1.60 1.62 1.61 1.55 1.47 1.41 1.26 1.12 1.06 0.81 0.60 0.56 0.51
0.55 0.53 0.55 0.65 0.82 0.93 1.15 1.47 1.75 1.92 2.17 2.42 2.47 2.48 2.47 2.43 2.38 2.19 2.10 2.08 2.06 2.00 1.90 1.90 1.94 1.95 1.89 1.79 1.76 1.77 1.77 1.77 1.74 1.70 1.57 1.49 1.42 1.26 1.24 1.12 0.86 0.79 0.70
0.46 0.46 0.52 0.60 0.74 0.87 1.00 1.16 1.36 1.51 1.70 1.94 2.07 2.10 2.21 2.32 2.25 2.14 1.95 1.89 1.87 1.83 1.79 1.78 1.84 1.92 1.90 1.88 1.86 1.86 1.84 1.85 1.86 1.82 1.74 1.62 1.50 1.42 1.45 1.45 1.24 1.04 0.86
0.44 0.43 0.43 0.50 0.62 0.73 0.87 0.98 1.09 1.21 1.40 1.57 1.70 1.83 1.94 2.12 2.13 2.11 1.90 1.75 1.69 1.68 1.75 1.69 1.61 1.65 1.74 1.78 1.79 1.77 1.75 1.76 1.74 1.70 1.68 1.64 1.52 1.51 1.56 1.64 1.73 1.62 1.28
0.43 0.41 0.40 0.42 0.52 0.59 0.69 0.81 0.94 1.04 1.15 1.31 1.48 1.63 1.69 1.76 1.84 1.93 1.91 1.75 1.66 1.61 1.60 1.54 1.47 1.41 1.43 1.52 1.61 1.61 1.60 1.63 1.63 1.59 1.57 1.59 1.53 1.52 1.57 1.68 1.86 2.07 1.88
0.43 0.40 0.40 0.45 0.51 0.53 0.57 0.68 0.85 0.91 0.95 1.06 1.20 1.32 1.43 1.58 1.65 1.69 1.68 1.61 1.56 1.55 1.52 1.42 1.33 1.27 1.26 1.27 1.34 1.36 1.36 1.40 1.41 1.42 1.43 1.41 1.40 1.45 1.49 1.55 1.64 1.81 1.91
0.44 0.43 0.47 0.53 0.58 0.54 0.56 0.65 0.75 0.86 0.93 0.97 1.04 1.09 1.12 1.20 1.36 1.49 1.51 1.51 1.48 1.46 1.43 1.36 1.30 1.25 1.18 1.14 1.13 1.11 1.16 1.23 1.24 1.27 1.28 1.22 1.20 1.26 1.29 1.34 1.40 1.49 1.60
0.40 0.45 0.53 0.55 0.56 0.59 0.62 0.67 0.71 0.79 0.91 0.94 0.97 1.03 1.05 1.03 1.11 1.23 1.35 1.43 1.50 1.41 1.38 1.33 1.27 1.20 1.15 1.11 1.08 1.04 1.03 1.07 1.10 1.13 1.18 1.16 1.12 1.13 1.16 1.21 1.20 1.20 1.24
0.39 0.40 0.47 0.53 0.54 0.59 0.69 0.72 0.76 0.78 0.81 0.86 0.88 0.90 0.91 0.90 0.93 1.00 1.12 1.20 1.31 1.32 1.28 1.29 1.22 1.12 1.07 1.05 1.02 0.98 0.97 0.98 0.97 1.00 1.09 1.13 1.15 1.15 1.14 1.15 1.13 1.12 1.14
0.38 0.38 0.43 0.47 0.52 0.57 0.62 0.63 0.72 0.75 0.77 0.78 0.84 0.86 0.83 0.82 0.87 0.94 0.99 1.04 1.10 1.19 1.19 1.20 1.23 1.21 1.14 1.10 1.07 1.02 0.98 0.99 0.98 0.97 1.03 1.09 1.11 1.07 1.04 1.06 1.03 1.06 1.12
0.34 0.38 0.40 0.43 0.46 0.46 0.45 0.49 0.55 0.64 0.67 0.71 0.80 0.85 0.86 0.90 0.99 1.01 0.97 0.97 0.99 1.05 1.11 1.13 1.17 1.19 1.19 1.16 1.15 1.12 1.10 1.12 1.12 1.07 1.04 1.04 1.09 1.08 1.04 1.03 1.03 1.06 1.13
0.28 0.30 0.34 0.39 0.41 0.40 0.40 0.41 0.45 0.50 0.52 0.57 0.65 0.74 0.81 0.89 0.99 1.04 1.01 0.97 0.94 0.99 1.07 1.07 1.13 1.20 1.22 1.36 1.34 1.24 1.20 1.19 1.15 1.09 0.99 0.96 1.01 1.01 1.05 1.06 1.06 1.12 1.23
0.22 0.22 0.25 0.30 0.32 0.32 0.34 0.37 0.40 0.43 0.47 0.48 0.53 0.63 0.78 0.86 0.90 0.97 1.00 0.99 0.98 1.08 1.17 1.18 1.19 1.27 1.39 1.46 1.30 1.23 1.13 1.11 1.07 1.00 0.94 0.89 0.86 0.92 0.86 0.92 0.99 1.04 1.14
0.18 0.18 0.20 0.23 0.23 0.25 0.27 0.29 0.31 0.38 0.46 0.51 0.56 0.63 0.73 0.83 0.92 0.98 1.03 1.06 1.06 1.13 1.22 1.27 1.28 1.31 1.34 1.38 1.28 1.21 1.05 1.00 0.96 0.90 0.84 0.83 0.80 0.82 0.89 0.96 1.02 0.94 0.89
0.18 0.17 0.18 0.19 0.18 0.20 0.24 0.25 0.28 0.34 0.42 0.49 0.55 0.59 0.68 0.78 0.89 1.00 1.08 1.11 1.13 1.16 1.21 1.20 1.17 1.14 1.15 1.16 1.08 1.08 0.98 0.98 0.92 0.86 0.83 0.82 0.78 0.87 1.03 1.09 1.10 0.95 0.81
0.21 0.21 0.20 0.19 0.18 0.20 0.22 0.26 0.29 0.34 0.42 0.46 0.52 0.56 0.62 0.72 0.82 0.93 1.02 1.07 1.09 1.10 1.07 1.05 1.00 0.97 0.97 1.04 0.97 0.97 0.96 0.97 0.91 0.85 0.83 0.90 0.88 0.97 1.09 1.05 1.06 0.99 0.81
0.22 0.26 0.28 0.28 0.29 0.31 0.32 0.33 0.35 0.39 0.43 0.46 0.52 0.56 0.60 0.67 0.75 0.81 0.85 0.89 0.89 0.89 0.87 0.85 0.82 0.80 0.83 0.89 0.86 0.87 0.91 0.92 0.93 0.92 0.84 0.83 1.00 1.09 1.12 1.03 0.88 0.89 0.96
0.26 0.30 0.35 0.37 0.38 0.38 0.39 0.40 0.43 0.45 0.45 0.47 0.53 0.58 0.60 0.59 0.61 0.64 0.69 0.68 0.68 0.70 0.70 0.70 0.71 0.72 0.75 0.78 0.82 0.85 0.91 0.96 0.90 0.86 0.79 0.82 1.01 1.02 0.98 0.90 0.91 0.99 0.95
0.30 0.32 0.34 0.35 0.36 0.40 0.43 0.46 0.47 0.46 0.45 0.48 0.49 0.51 0.53 0.52 0.53 0.54 0.56 0.58 0.60 0.61 0.64 0.65 0.66 0.67 0.68 0.71 0.80 0.82 0.89 0.95 0.88 0.83 0.88 0.93 0.94 0.89 0.85 0.87 0.90 0.87 0.82
0.32 0.31 0.31 0.31 0.33 0.35 0.38 0.41 0.40 0.40 0.38 0.41 0.41 0.41 0.42 0.44 0.46 0.47 0.50 0.54 0.56 0.56 0.56 0.58 0.58 0.59 0.60 0.59 0.64 0.72 0.78 0.85 0.84 0.86 0.88 0.85 0.82 0.80 0.81 0.86 0.84 0.77 0.81
0.33 0.30 0.29 0.29 0.31 0.31 0.32 0.34 0.34 0.33 0.34 0.35 0.34 0.33 0.34 0.39 0.43 0.44 0.47 0.51 0.54 0.59 0.60 0.56 0.55 0.58 0.58 0.59 0.72 0.78 0.75 0.82 0.87 0.87 0.77 0.72 0.72 0.73 0.71 0.70 0.73 0.75 0.81
0.32 0.29 0.28 0.29 0.28 0.27 0.28 0.27 0.29 0.32 0.33 0.33 0.33 0.33 0.31 0.35 0.42 0.46 0.46 0.51 0.55 0.61 0.66 0.65 0.61 0.57 0.60 0.65 0.71 0.74 0.80 0.86 0.89 0.82 0.73 0.68 0.66 0.66 0.68 0.68 0.69 0.73 0.78